UAL1829 KDEN-KIAH

Flight info

Callsign UAL1829
Flight time N/A
Altitude 33000
Route SLEEK2 SLEEK NOSEW MQP GUSHR3
Aircraft A21N/M-SDE2E3FGHIRWXY/LB1

Departure

Time 2026-05-03 20:28
Airport Denver International Airport (KDEN)

Arrival

Time N/A
Airport George Bush Intercontinental Airport (KIAH)
Time Latitude Longitude Altitude Speed Heading
2026-05-03 20:15 39.85936 -104.67556 5385 ft 0 kts 180°
2026-05-03 20:16 39.85948 -104.67556 5383 ft 4 kts 180°
2026-05-03 20:16 39.85975 -104.67555 5382 ft 4 kts 191°
2026-05-03 20:17 39.85999 -104.67543 5385 ft 4 kts 219°
2026-05-03 20:17 39.86012 -104.67517 5385 ft 4 kts 265°
2026-05-03 20:17 39.86013 -104.67505 5385 ft 0 kts 270°
2026-05-03 20:23 39.86013 -104.67512 5385 ft 2 kts 270°
2026-05-03 20:23 39.86013 -104.67544 5385 ft 5 kts 270°
2026-05-03 20:23 39.86013 -104.67601 5385 ft 8 kts 270°
2026-05-03 20:23 39.86013 -104.67684 5385 ft 10 kts 270°
2026-05-03 20:24 39.86014 -104.67785 5385 ft 12 kts 271°
2026-05-03 20:24 39.86016 -104.67896 5385 ft 13 kts 271°
2026-05-03 20:24 39.86018 -104.68021 5385 ft 14 kts 270°
2026-05-03 20:24 39.86018 -104.68151 5385 ft 14 kts 270°
2026-05-03 20:25 39.86031 -104.68277 5381 ft 14 kts 269°
2026-05-03 20:25 39.86029 -104.68411 5377 ft 15 kts 269°
2026-05-03 20:25 39.86049 -104.68503 5374 ft 11 kts 326°
2026-05-03 20:25 39.86125 -104.68508 5372 ft 12 kts
2026-05-03 20:26 39.86210 -104.68508 5371 ft 13 kts
2026-05-03 20:26 39.86301 -104.68507 5368 ft 14 kts
2026-05-03 20:26 39.86398 -104.68510 5367 ft 15 kts 337°
2026-05-03 20:26 39.86427 -104.68633 5367 ft 16 kts 271°
2026-05-03 20:27 39.86463 -104.68719 5367 ft 12 kts 354°
2026-05-03 20:27 39.86564 -104.68717 5366 ft 27 kts
2026-05-03 20:27 39.87014 -104.68712 5366 ft 100 kts 360°
2026-05-03 20:27 39.87911 -104.68703 5366 ft 151 kts
2026-05-03 20:28 39.89040 -104.68688 5380 ft 177 kts
2026-05-03 20:28 39.90252 -104.68625 5867 ft 171 kts 355°
2026-05-03 20:28 39.91471 -104.68660 6267 ft 181 kts 354°
2026-05-03 20:28 39.92778 -104.68662 6546 ft 195 kts
2026-05-03 20:29 39.94057 -104.67910 6787 ft 214 kts 38°
2026-05-03 20:29 39.95101 -104.66466 7099 ft 228 kts 47°
2026-05-03 20:29 39.96106 -104.64794 7457 ft 243 kts 60°
2026-05-03 20:29 39.96578 -104.62601 7715 ft 261 kts 83°
2026-05-03 20:30 39.96704 -104.60163 8002 ft 281 kts 87°
2026-05-03 20:30 39.96787 -104.57543 8417 ft 294 kts 88°
2026-05-03 20:30 39.96869 -104.54827 9025 ft 302 kts 87°
2026-05-03 20:30 39.96870 -104.52080 9751 ft 304 kts 99°
2026-05-03 20:31 39.96224 -104.49473 10292 ft 312 kts 117°
2026-05-03 20:31 39.94935 -104.47117 10592 ft 327 kts 139°
2026-05-03 20:31 39.92994 -104.45546 10854 ft 340 kts 162°
2026-05-03 20:31 39.90619 -104.44964 11131 ft 354 kts 177°
2026-05-03 20:32 39.88107 -104.44757 11605 ft 364 kts 179°
2026-05-03 20:32 39.85587 -104.44549 12274 ft 368 kts 178°
2026-05-03 20:32 39.83016 -104.44293 12969 ft 372 kts 178°
2026-05-03 20:32 39.80433 -104.44009 13639 ft 374 kts 178°